Terminal Aerodrome Forecast
Issued by NWS Duluth, MN

Home | Current Version | Previous Version | Text Only | Print | Product List | Glossary On
Versions: 1 2 3 4 5 6 7 8 9 10 11 12 13 14 15 16 17 18 19 20 21 22
000
FTUS43 KDLH 190900 AAD
TAFINL
TAF AMD
KINL 190935Z 1910/2006 13011G21KT 2SM -SN OVC025
      TEMPO 1910/1914 1/2SM SN OVC012
     FM191800 16015G25KT P6SM SCT021 BKN250
     FM192000 18010KT P6SM SCT015
     FM200000 VRB05KT 6SM BR BKN250=

USA.gov is the U.S. government's official web portal to all federal, state and local government web resources and services.